Flag for Japan Weather past 2 weeks in Nagoya, Japan

Now
39 °F

Partly sunny.


Feels Like: 31 °F
Forecast: 27 / 52 °F
Wind: 15 mph from North

Location: Nagoya Airport

Current Time: Mar 3, 2015 at 8:12:04 AM

Latest Report: Mar 3, 2015 at 7:30 AM


Visibility: N/A

Pressure: 30.12 "Hg

Humidity: 75%

Dew point: 32 °F

Location of NagoyaLocation

Historic Weather in Nagoya — Graph

°F

Nagoya temperature yesterday

Maximum temperature yesterday: 50 °F (at 12:00 PM)
Minimum temperature yesterday: 43 °F (at 4:30 AM)
Average temperature yesterday: 46 °F

Past Weeks' High & Low Weather Summary

 TemperatureHumidityPressure
High57 °F (Feb 22, 12:00 PM)100% (Feb 22, 9:00 PM)30.33 "Hg (Feb 22, 9:00 PM)
Low34 °F (Mar 3, 5:30 AM)28% (Feb 28, 1:30 PM)29.62 "Hg (Mar 1, 2:30 PM)
Average47 °F70%30.01 "Hg
* Reported Feb 16 7:00 AM — Mar 3 7:00 AM, Nagoya, Weather by CustomWeather, © 2015

Note: Actual official high and low records may vary slightly from our data, if they occured in-between our weather recording intervals... More about our weather records

Advertising

Nagoya weather history for previous 24 hours

 ConditionsComfort  
Time TempWeatherWind HumidityBarometerVisibility
7:00 AM
Tue, Mar 3
39 °FPartly sunny.12 mph75%30.09 "HgN/A
6:30 AM37 °FPartly sunny.13 mph81%30.09 "HgN/A
6:00 AM36 °FPassing clouds.8 mph81%30.07 "HgN/A
5:30 AM34 °FPassing clouds.5 mph81%30.07 "HgN/A
5:00 AM37 °FPassing clouds.3 mph75%30.07 "HgN/A
4:30 AM37 °FPassing clouds.3 mph75%30.09 "HgN/A
4:00 AM37 °FPassing clouds.6 mph70%30.09 "HgN/A
3:30 AM37 °FPassing clouds.6 mph70%30.09 "HgN/A
3:00 AM37 °FPassing clouds.6 mph70%30.09 "HgN/A
2:30 AM39 °FPassing clouds.9 mph65%30.09 "HgN/A
2:00 AM43 °FPassing clouds.8 mph71%30.12 "HgN/A
1:30 AM43 °FPassing clouds.9 mph71%30.12 "HgN/A
1:00 AM43 °FPassing clouds.13 mph71%30.12 "HgN/A
12:30 AM45 °FPassing clouds.17 mph61%30.12 "HgN/A
12:00 AM45 °FPassing clouds.15 mph57%30.09 "HgN/A
11:30 PM
Mon, Mar 2
45 °FPassing clouds.16 mph57%30.09 "HgN/A
11:00 PM45 °FPassing clouds.17 mph57%30.09 "HgN/A
10:30 PM45 °FPassing clouds.18 mph61%30.09 "HgN/A
10:00 PM45 °FPassing clouds.20 mph61%30.09 "HgN/A
9:30 PM45 °FPassing clouds.22 mph61%30.09 "HgN/A
9:00 PM45 °FPassing clouds.23 mph66%30.07 "HgN/A
8:30 PM45 °FPassing clouds.25 mph66%30.07 "HgN/A
8:00 PM46 °FPassing clouds.26 mph62%30.07 "HgN/A
7:30 PM46 °FPassing clouds.24 mph62%30.07 "HgN/A
7:00 PM46 °FPassing clouds.25 mph62%30.04 "HgN/A
6:30 PM46 °FPassing clouds.25 mph66%30.04 "HgN/A
6:00 PM46 °FPassing clouds.24 mph62%30.04 "HgN/A
5:30 PM48 °FPassing clouds.28 mph54%30.01 "HgN/A
5:00 PM48 °FPassing clouds.24 mph54%30.01 "HgN/A
4:30 PM48 °FPassing clouds.25 mph54%29.98 "HgN/A
4:00 PM50 °FPassing clouds.22 mph58%29.98 "HgN/A
3:30 PM50 °FPassing clouds.24 mph54%29.98 "HgN/A
3:00 PM50 °FPassing clouds.23 mph54%29.98 "HgN/A
2:30 PM48 °FPassing clouds.26 mph58%29.98 "HgN/A
2:00 PM50 °FPassing clouds.25 mph50%29.98 "HgN/A
1:30 PM50 °FPassing clouds.24 mph50%29.98 "HgN/A
1:00 PM50 °FPassing clouds.26 mph54%29.98 "HgN/A
12:30 PM50 °FScattered clouds.25 mph54%29.98 "HgN/A
12:00 PM50 °FScattered clouds.25 mph50%29.98 "HgN/A
11:30 AM48 °FPartly sunny.26 mph50%29.98 "HgN/A
11:00 AM48 °FPartly sunny.23 mph58%29.98 "HgN/A
10:30 AM46 °FScattered clouds.26 mph62%29.98 "HgN/A
10:00 AM46 °FScattered clouds.31 mph62%29.95 "HgN/A
9:30 AM48 °FPassing clouds.25 mph54%29.95 "HgN/A
9:00 AM46 °FPassing clouds.28 mph57%29.95 "HgN/A
8:30 AM46 °FPassing clouds.17 mph57%29.95 "HgN/A
8:00 AM46 °FScattered clouds.28 mph62%29.95 "HgN/A
Weather by CustomWeather, © 2015

See weather overviewHow to use our weather pages